owner,sensor,date,latitude,longitude,air_temperature,qcFlag 
ADCP,ioos:station:wmo:42887:1,2014-10-01T00:00:00Z,28.1910,-88.4960,28.1,11111222 
ADCP,ioos:station:wmo:42887:1,2014-10-01T00:20:00Z,28.1910,-88.4960,28.0,11111222 
ADCP,ioos:station:wmo:42887:1,2014-10-01T00:40:00Z,28.1910,-88.4960,28.0,11111222 
ADCP,ioos:station:wmo:42887:1,2014-10-01T01:00:00Z,28.1910,-88.4960,27.9,11111222 
ADCP,ioos:station:wmo:42887:1,2014-10-01T01:20:00Z,28.1910,-88.4960,27.8,11111222 
ADCP,ioos:station:wmo:42887:1,2014-10-01T01:40:00Z,28.1910,-88.4960,27.8,11111222 
ADCP,ioos:station:wmo:42887:1,2014-10-01T02:00:00Z,28.1910,-88.4960,28.0,11111222 
ADCP,ioos:station:wmo:42887:1,2014-10-01T02:20:00Z,28.1910,-88.4960,28.1,11111222 
ADCP,ioos:station:wmo:42887:1,2014-10-01T02:40:00Z,28.1910,-88.4960,28.0,11111222 
ADCP,ioos:station:wmo:42887:1,2014-10-01T03:00:00Z,28.1910,-88.4960,28.0,11111222 
ADCP,ioos:station:wmo:42887:1,2014-10-01T03:20:00Z,28.1910,-88.4960,27.4,11111222 
ADCP,ioos:station:wmo:42887:1,2014-10-01T03:40:00Z,28.1910,-88.4960,28.0,11111222 
ADCP,ioos:station:wmo:42887:1,2014-10-01T04:00:00Z,28.1910,-88.4960,27.9,11111222 
ADCP,ioos:station:wmo:42887:1,2014-10-01T04:20:00Z,28.1910,-88.4960,27.8,11111222 
ADCP,ioos:station:wmo:42887:1,2014-10-01T04:40:00Z,28.1910,-88.4960,27.5,11111222 
ADCP,ioos:station:wmo:42887:1,2014-10-01T05:00:00Z,28.1910,-88.4960,27.7,11111222 
ADCP,ioos:station:wmo:42887:1,2014-10-01T05:20:00Z,28.1910,-88.4960,27.7,11111222 
ADCP,ioos:station:wmo:42887:1,2014-10-01T05:40:00Z,28.1910,-88.4960,27.7,11111222 
ADCP,ioos:station:wmo:42887:1,2014-10-01T06:00:00Z,28.1910,-88.4960,27.7,11111222 
ADCP,ioos:station:wmo:42887:1,2014-10-01T06:20:00Z,28.1910,-88.4960,27.7,11111222 
ADCP,ioos:station:wmo:42887:1,2014-10-01T06:40:00Z,28.1910,-88.4960,26.8,11111222 
ADCP,ioos:station:wmo:42887:1,2014-10-01T07:00:00Z,28.1910,-88.4960,26.1,11111222 
ADCP,ioos:station:wmo:42887:1,2014-10-01T07:20:00Z,28.1910,-88.4960,25.9,11111222 
ADCP,ioos:station:wmo:42887:1,2014-10-01T07:40:00Z,28.1910,-88.4960,26.1,11111222 
ADCP,ioos:station:wmo:42887:1,2014-10-01T08:00:00Z,28.1910,-88.4960,26.0,11111222 
ADCP,ioos:station:wmo:42887:1,2014-10-01T08:20:00Z,28.1910,-88.4960,26.1,11111222 
ADCP,ioos:station:wmo:42887:1,2014-10-01T08:40:00Z,28.1910,-88.4960,26.0,11111222 
ADCP,ioos:station:wmo:42887:1,2014-10-01T09:00:00Z,28.1910,-88.4960,26.0,11111222 
ADCP,ioos:station:wmo:42887:1,2014-10-01T09:20:00Z,28.1910,-88.4960,25.9,11111222 
ADCP,ioos:station:wmo:42887:1,2014-10-01T09:40:00Z,28.1910,-88.4960,26.0,11111222 
ADCP,ioos:station:wmo:42887:1,2014-10-01T10:00:00Z,28.1910,-88.4960,25.8,11111222 
ADCP,ioos:station:wmo:42887:1,2014-10-01T10:20:00Z,28.1910,-88.4960,26.0,11111222 
ADCP,ioos:station:wmo:42887:1,2014-10-01T10:40:00Z,28.1910,-88.4960,26.1,11111222 
ADCP,ioos:station:wmo:42887:1,2014-10-01T11:00:00Z,28.1910,-88.4960,26.1,11111222 
ADCP,ioos:station:wmo:42887:1,2014-10-01T11:20:00Z,28.1910,-88.4960,26.2,11111222 
ADCP,ioos:station:wmo:42887:1,2014-10-01T11:40:00Z,28.1910,-88.4960,26.2,11111222 
ADCP,ioos:station:wmo:42887:1,2014-10-01T12:00:00Z,28.1910,-88.4960,26.2,11111222 
ADCP,ioos:station:wmo:42887:1,2014-10-01T12:20:00Z,28.1910,-88.4960,26.5,11111222 
ADCP,ioos:station:wmo:42887:1,2014-10-01T12:40:00Z,28.1910,-88.4960,26.6,11111222 
ADCP,ioos:station:wmo:42887:1,2014-10-01T13:00:00Z,28.1910,-88.4960,26.6,11111222 
ADCP,ioos:station:wmo:42887:1,2014-10-01T13:20:00Z,28.1910,-88.4960,26.6,11111222 
ADCP,ioos:station:wmo:42887:1,2014-10-01T13:40:00Z,28.1910,-88.4960,26.8,11111222 
ADCP,ioos:station:wmo:42887:1,2014-10-01T14:00:00Z,28.1910,-88.4960,26.8,11111222 
ADCP,ioos:station:wmo:42887:1,2014-10-01T14:20:00Z,28.1910,-88.4960,26.7,11111222 
ADCP,ioos:station:wmo:42887:1,2014-10-01T14:40:00Z,28.1910,-88.4960,26.9,11111222 
ADCP,ioos:station:wmo:42887:1,2014-10-01T15:00:00Z,28.1910,-88.4960,26.8,11111222 
ADCP,ioos:station:wmo:42887:1,2014-10-01T15:20:00Z,28.1910,-88.4960,26.7,11111222 
ADCP,ioos:station:wmo:42887:1,2014-10-01T15:40:00Z,28.1910,-88.4960,26.4,11111222 
ADCP,ioos:station:wmo:42887:1,2014-10-01T16:00:00Z,28.1910,-88.4960,26.8,11111222 
ADCP,ioos:station:wmo:42887:1,2014-10-01T16:20:00Z,28.1910,-88.4960,26.6,11111222 
ADCP,ioos:station:wmo:42887:1,2014-10-01T16:40:00Z,28.1910,-88.4960,26.0,11111222 
ADCP,ioos:station:wmo:42887:1,2014-10-01T17:00:00Z,28.1910,-88.4960,26.7,11111222 
ADCP,ioos:station:wmo:42887:1,2014-10-01T17:20:00Z,28.1910,-88.4960,26.8,11111222 
ADCP,ioos:station:wmo:42887:1,2014-10-01T17:40:00Z,28.1910,-88.4960,26.9,11111222 
ADCP,ioos:station:wmo:42887:1,2014-10-01T18:00:00Z,28.1910,-88.4960,27.3,11111222 
ADCP,ioos:station:wmo:42887:1,2014-10-01T18:20:00Z,28.1910,-88.4960,27.8,11111222 
ADCP,ioos:station:wmo:42887:1,2014-10-01T18:40:00Z,28.1910,-88.4960,28.0,11111222 
ADCP,ioos:station:wmo:42887:1,2014-10-01T19:00:00Z,28.1910,-88.4960,28.2,11111222 
ADCP,ioos:station:wmo:42887:1,2014-10-01T19:20:00Z,28.1910,-88.4960,27.9,11111222 
ADCP,ioos:station:wmo:42887:1,2014-10-01T19:40:00Z,28.1910,-88.4960,27.4,11111222 
ADCP,ioos:station:wmo:42887:1,2014-10-01T20:00:00Z,28.1910,-88.4960,27.5,11111222 
ADCP,ioos:station:wmo:42887:1,2014-10-01T20:20:00Z,28.1910,-88.4960,27.2,11111222 
ADCP,ioos:station:wmo:42887:1,2014-10-01T20:40:00Z,28.1910,-88.4960,27.6,11111222 
ADCP,ioos:station:wmo:42887:1,2014-10-01T21:00:00Z,28.1910,-88.4960,28.1,11111222 
ADCP,ioos:station:wmo:42887:1,2014-10-01T21:20:00Z,28.1910,-88.4960,28.0,11111222 
ADCP,ioos:station:wmo:42887:1,2014-10-01T21:40:00Z,28.1910,-88.4960,28.4,11111222 
ADCP,ioos:station:wmo:42887:1,2014-10-01T22:00:00Z,28.1910,-88.4960,28.6,11111222 
ADCP,ioos:station:wmo:42887:1,2014-10-01T22:20:00Z,28.1910,-88.4960,28.7,11111222 
ADCP,ioos:station:wmo:42887:1,2014-10-01T22:40:00Z,28.1910,-88.4960,28.5,11111222 
ADCP,ioos:station:wmo:42887:1,2014-10-01T23:00:00Z,28.1910,-88.4960,28.4,11111222 
ADCP,ioos:station:wmo:42887:1,2014-10-01T23:20:00Z,28.1910,-88.4960,28.1,11111222 
ADCP,ioos:station:wmo:42887:1,2014-10-01T23:40:00Z,28.1910,-88.4960,28.3,11111222 
ADCP,ioos:station:wmo:42887:1,2014-10-02T00:00:00Z,28.1910,-88.4960,28.4,11111222 
ADCP,ioos:station:wmo:42887:1,2014-10-02T00:20:00Z,28.1910,-88.4960,28.3,11111222 
ADCP,ioos:station:wmo:42887:1,2014-10-02T00:40:00Z,28.1910,-88.4960,28.6,11111222 
ADCP,ioos:station:wmo:42887:1,2014-10-02T01:00:00Z,28.1910,-88.4960,28.5,11111222 
ADCP,ioos:station:wmo:42887:1,2014-10-02T01:20:00Z,28.1910,-88.4960,28.5,11111222 
ADCP,ioos:station:wmo:42887:1,2014-10-02T01:40:00Z,28.1910,-88.4960,28.5,11111222 
ADCP,ioos:station:wmo:42887:1,2014-10-02T02:00:00Z,28.1910,-88.4960,27.6,11111222 
ADCP,ioos:station:wmo:42887:1,2014-10-02T02:20:00Z,28.1910,-88.4960,27.8,11111222 
ADCP,ioos:station:wmo:42887:1,2014-10-02T02:40:00Z,28.1910,-88.4960,28.3,11111222 
ADCP,ioos:station:wmo:42887:1,2014-10-02T03:00:00Z,28.1910,-88.4960,28.4,11111222 
ADCP,ioos:station:wmo:42887:1,2014-10-02T03:20:00Z,28.1910,-88.4960,28.4,11111222 
ADCP,ioos:station:wmo:42887:1,2014-10-02T03:40:00Z,28.1910,-88.4960,27.4,11111222 
ADCP,ioos:station:wmo:42887:1,2014-10-02T04:00:00Z,28.1910,-88.4960,26.5,11111222 
ADCP,ioos:station:wmo:42887:1,2014-10-02T04:20:00Z,28.1910,-88.4960,26.7,11111222 
ADCP,ioos:station:wmo:42887:1,2014-10-02T04:40:00Z,28.1910,-88.4960,27.2,11111222 
ADCP,ioos:station:wmo:42887:1,2014-10-02T05:00:00Z,28.1910,-88.4960,26.4,11111222 
ADCP,ioos:station:wmo:42887:1,2014-10-02T05:20:00Z,28.1910,-88.4960,25.7,11111222 
ADCP,ioos:station:wmo:42887:1,2014-10-02T05:40:00Z,28.1910,-88.4960,25.7,11111222 
ADCP,ioos:station:wmo:42887:1,2014-10-02T06:00:00Z,28.1910,-88.4960,26.2,11111222 
ADCP,ioos:station:wmo:42887:1,2014-10-02T06:20:00Z,28.1910,-88.4960,26.4,11111222 
ADCP,ioos:station:wmo:42887:1,2014-10-02T06:40:00Z,28.1910,-88.4960,26.0,11111222 
ADCP,ioos:station:wmo:42887:1,2014-10-02T07:00:00Z,28.1910,-88.4960,26.2,11111222 
ADCP,ioos:station:wmo:42887:1,2014-10-02T07:20:00Z,28.1910,-88.4960,26.2,11111222 
ADCP,ioos:station:wmo:42887:1,2014-10-02T07:40:00Z,28.1910,-88.4960,26.2,11111222 
ADCP,ioos:station:wmo:42887:1,2014-10-02T08:00:00Z,28.1910,-88.4960,26.6,11111222 
ADCP,ioos:station:wmo:42887:1,2014-10-02T08:20:00Z,28.1910,-88.4960,26.6,11111222 
ADCP,ioos:station:wmo:42887:1,2014-10-02T08:40:00Z,28.1910,-88.4960,27.0,11111222 
ADCP,ioos:station:wmo:42887:1,2014-10-02T09:00:00Z,28.1910,-88.4960,26.5,11111222 
ADCP,ioos:station:wmo:42887:1,2014-10-02T09:20:00Z,28.1910,-88.4960,27.1,11111222 
ADCP,ioos:station:wmo:42887:1,2014-10-02T09:40:00Z,28.1910,-88.4960,27.1,11111222 
ADCP,ioos:station:wmo:42887:1,2014-10-02T10:00:00Z,28.1910,-88.4960,26.8,11111222 
ADCP,ioos:station:wmo:42887:1,2014-10-02T10:20:00Z,28.1910,-88.4960,26.8,11111222 
ADCP,ioos:station:wmo:42887:1,2014-10-02T10:40:00Z,28.1910,-88.4960,26.4,11111222 
ADCP,ioos:station:wmo:42887:1,2014-10-02T11:00:00Z,28.1910,-88.4960,26.5,11111222 
ADCP,ioos:station:wmo:42887:1,2014-10-02T11:20:00Z,28.1910,-88.4960,26.6,11111222 
ADCP,ioos:station:wmo:42887:1,2014-10-02T11:40:00Z,28.1910,-88.4960,26.4,11111222 
ADCP,ioos:station:wmo:42887:1,2014-10-02T12:00:00Z,28.1910,-88.4960,26.4,11111222 
ADCP,ioos:station:wmo:42887:1,2014-10-02T12:20:00Z,28.1910,-88.4960,26.6,11111222 
ADCP,ioos:station:wmo:42887:1,2014-10-02T12:40:00Z,28.1910,-88.4960,26.7,11111222 
ADCP,ioos:station:wmo:42887:1,2014-10-02T13:00:00Z,28.1910,-88.4960,26.7,11111222 
ADCP,ioos:station:wmo:42887:1,2014-10-03T14:20:00Z,28.1910,-88.4960,26.9,11111222 
ADCP,ioos:station:wmo:42887:1,2014-10-03T14:40:00Z,28.1910,-88.4960,26.9,11111222 
ADCP,ioos:station:wmo:42887:1,2014-10-03T15:00:00Z,28.1910,-88.4960,29.5,11111222 
ADCP,ioos:station:wmo:42887:1,2014-10-03T15:20:00Z,28.1910,-88.4960,29.6,11111222 
ADCP,ioos:station:wmo:42887:1,2014-10-03T15:40:00Z,28.1910,-88.4960,27.0,11111222 
ADCP,ioos:station:wmo:42887:1,2014-10-03T16:00:00Z,28.1910,-88.4960,27.0,11111222 
ADCP,ioos:station:wmo:42887:1,2014-10-03T16:20:00Z,28.1910,-88.4960,27.2,11111222 
ADCP,ioos:station:wmo:42887:1,2014-10-03T16:40:00Z,28.1910,-88.4960,27.2,11111222 
ADCP,ioos:station:wmo:42887:1,2014-10-03T17:00:00Z,28.1910,-88.4960,27.2,11111222 
ADCP,ioos:station:wmo:42887:1,2014-10-03T17:20:00Z,28.1910,-88.4960,27.2,11111222 
ADCP,ioos:station:wmo:42887:1,2014-10-03T17:40:00Z,28.1910,-88.4960,27.2,11111222 
ADCP,ioos:station:wmo:42887:1,2014-10-03T18:00:00Z,28.1910,-88.4960,27.2,11111222 
ADCP,ioos:station:wmo:42887:1,2014-10-03T18:20:00Z,28.1910,-88.4960,27.2,11111222 
ADCP,ioos:station:wmo:42887:1,2014-10-03T18:40:00Z,28.1910,-88.4960,27.2,11111222 
ADCP,ioos:station:wmo:42887:1,2014-10-03T19:00:00Z,28.1910,-88.4960,27.2,11111222 
ADCP,ioos:station:wmo:42887:1,2014-10-03T19:20:00Z,28.1910,-88.4960,27.2,11111222 
ADCP,ioos:station:wmo:42887:1,2014-10-03T19:40:00Z,28.1910,-88.4960,27.2,11111222 
ADCP,ioos:station:wmo:42887:1,2014-10-03T20:00:00Z,28.1910,-88.4960,27.2,11111222 
ADCP,ioos:station:wmo:42887:1,2014-10-03T20:20:00Z,28.1910,-88.4960,28.1,11111222 
ADCP,ioos:station:wmo:42887:1,2014-10-03T20:40:00Z,28.1910,-88.4960,28.3,11111222 
ADCP,ioos:station:wmo:42887:1,2014-10-03T21:00:00Z,28.1910,-88.4960,28.4,11111222 
ADCP,ioos:station:wmo:42887:1,2014-10-03T21:20:00Z,28.1910,-88.4960,28.4,11111222 
ADCP,ioos:station:wmo:42887:1,2014-10-03T21:40:00Z,28.1910,-88.4960,28.6,11111222 
ADCP,ioos:station:wmo:42887:1,2014-10-03T22:00:00Z,28.1910,-88.4960,29.0,11111222 
ADCP,ioos:station:wmo:42887:1,2014-10-03T22:20:00Z,28.1910,-88.4960,29.0,11111222 
ADCP,ioos:station:wmo:42887:1,2014-10-03T22:40:00Z,28.1910,-88.4960,28.4,11111222 
ADCP,ioos:station:wmo:42887:1,2014-10-03T23:00:00Z,28.1910,-88.4960,28.5,11111222 
ADCP,ioos:station:wmo:42887:1,2014-10-03T23:20:00Z,28.1910,-88.4960,28.4,11111222 
ADCP,ioos:station:wmo:42887:1,2014-10-03T23:40:00Z,28.1910,-88.4960,28.3,11111222 
ADCP,ioos:station:wmo:42887:1,2014-10-04T00:00:00Z,28.1910,-88.4960,28.0,11111222 
ADCP,ioos:station:wmo:42887:1,2014-10-04T00:20:00Z,28.1910,-88.4960,28.2,11111222 
ADCP,ioos:station:wmo:42887:1,2014-10-04T00:40:00Z,28.1910,-88.4960,28.1,11111222 
ADCP,ioos:station:wmo:42887:1,2014-10-04T01:00:00Z,28.1910,-88.4960,28.2,11111222 
ADCP,ioos:station:wmo:42887:1,2014-10-04T01:20:00Z,28.1910,-88.4960,28.3,11111222 
ADCP,ioos:station:wmo:42887:1,2014-10-04T01:40:00Z,28.1910,-88.4960,27.8,11111222 
ADCP,ioos:station:wmo:42887:1,2014-10-04T02:00:00Z,28.1910,-88.4960,27.8,11111222 
ADCP,ioos:station:wmo:42887:1,2014-10-04T02:20:00Z,28.1910,-88.4960,27.6,11111222 
ADCP,ioos:station:wmo:42887:1,2014-10-04T02:40:00Z,28.1910,-88.4960,27.8,11111222 
ADCP,ioos:station:wmo:42887:1,2014-10-04T03:00:00Z,28.1910,-88.4960,27.7,11111222 
ADCP,ioos:station:wmo:42887:1,2014-10-04T03:20:00Z,28.1910,-88.4960,27.7,11111222 
ADCP,ioos:station:wmo:42887:1,2014-10-04T03:40:00Z,28.1910,-88.4960,27.7,11111222 
ADCP,ioos:station:wmo:42887:1,2014-10-04T04:00:00Z,28.1910,-88.4960,27.7,11111222 
ADCP,ioos:station:wmo:42887:1,2014-10-04T04:20:00Z,28.1910,-88.4960,27.5,11111222 
ADCP,ioos:station:wmo:42887:1,2014-10-04T04:40:00Z,28.1910,-88.4960,27.4,11111222 
ADCP,ioos:station:wmo:42887:1,2014-10-04T05:00:00Z,28.1910,-88.4960,27.2,11111222 
ADCP,ioos:station:wmo:42887:1,2014-10-04T05:20:00Z,28.1910,-88.4960,27.4,11111222 
ADCP,ioos:station:wmo:42887:1,2014-10-04T05:40:00Z,28.1910,-88.4960,27.2,11111222 
ADCP,ioos:station:wmo:42887:1,2014-10-04T06:00:00Z,28.1910,-88.4960,27.1,11111222 
ADCP,ioos:station:wmo:42887:1,2014-10-04T06:20:00Z,28.1910,-88.4960,26.8,11111222 
ADCP,ioos:station:wmo:42887:1,2014-10-04T06:40:00Z,28.1910,-88.4960,26.0,11111222 
ADCP,ioos:station:wmo:42887:1,2014-10-04T07:00:00Z,28.1910,-88.4960,26.2,11111222 
ADCP,ioos:station:wmo:42887:1,2014-10-04T07:20:00Z,28.1910,-88.4960,25.5,11111222 
ADCP,ioos:station:wmo:42887:1,2014-10-04T07:40:00Z,28.1910,-88.4960,26.1,11111222 
ADCP,ioos:station:wmo:42887:1,2014-10-04T08:00:00Z,28.1910,-88.4960,26.2,11111222 
ADCP,ioos:station:wmo:42887:1,2014-10-04T08:20:00Z,28.1910,-88.4960,26.5,11111222 
ADCP,ioos:station:wmo:42887:1,2014-10-04T08:40:00Z,28.1910,-88.4960,26.5,11111222 
ADCP,ioos:station:wmo:42887:1,2014-10-04T09:00:00Z,28.1910,-88.4960,26.6,11111222 
ADCP,ioos:station:wmo:42887:1,2014-10-04T09:20:00Z,28.1910,-88.4960,26.6,11111222 
ADCP,ioos:station:wmo:42887:1,2014-10-04T09:40:00Z,28.1910,-88.4960,26.1,11111222 
ADCP,ioos:station:wmo:42887:1,2014-10-04T10:00:00Z,28.1910,-88.4960,26.3,11111222 
ADCP,ioos:station:wmo:42887:1,2014-10-04T10:20:00Z,28.1910,-88.4960,26.2,11111222 
ADCP,ioos:station:wmo:42887:1,2014-10-04T10:40:00Z,28.1910,-88.4960,26.2,11111222 
ADCP,ioos:station:wmo:42887:1,2014-10-04T11:00:00Z,28.1910,-88.4960,25.9,11111222 
ADCP,ioos:station:wmo:42887:1,2014-10-04T11:20:00Z,28.1910,-88.4960,25.8,11111222 
ADCP,ioos:station:wmo:42887:1,2014-10-04T11:40:00Z,28.1910,-88.4960,25.9,11111222 
ADCP,ioos:station:wmo:42887:1,2014-10-04T12:00:00Z,28.1910,-88.4960,25.9,11111222 
ADCP,ioos:station:wmo:42887:1,2014-10-04T12:20:00Z,28.1910,-88.4960,26.4,11111222 
ADCP,ioos:station:wmo:42887:1,2014-10-04T12:40:00Z,28.1910,-88.4960,26.7,11111222 
ADCP,ioos:station:wmo:42887:1,2014-10-04T13:00:00Z,28.1910,-88.4960,26.9,11111222 
ADCP,ioos:station:wmo:42887:1,2014-10-04T13:20:00Z,28.1910,-88.4960,27.1,11111222 
ADCP,ioos:station:wmo:42887:1,2014-10-04T13:40:00Z,28.1910,-88.4960,27.1,11111222 
ADCP,ioos:station:wmo:42887:1,2014-10-04T14:00:00Z,28.1910,-88.4960,27.2,11111222 
ADCP,ioos:station:wmo:42887:1,2014-10-04T14:20:00Z,28.1910,-88.4960,27.4,11111222 
ADCP,ioos:station:wmo:42887:1,2014-10-04T14:40:00Z,28.1910,-88.4960,27.3,11111222 
ADCP,ioos:station:wmo:42887:1,2014-10-04T15:00:00Z,28.1910,-88.4960,27.0,11111222 
ADCP,ioos:station:wmo:42887:1,2014-10-04T15:20:00Z,28.1910,-88.4960,26.6,11111222 
ADCP,ioos:station:wmo:42887:1,2014-10-04T15:40:00Z,28.1910,-88.4960,26.2,11111222 
ADCP,ioos:station:wmo:42887:1,2014-10-04T16:00:00Z,28.1910,-88.4960,26.2,11111222 
ADCP,ioos:station:wmo:42887:1,2014-10-04T16:20:00Z,28.1910,-88.4960,26.1,11111222 
ADCP,ioos:station:wmo:42887:1,2014-10-04T16:40:00Z,28.1910,-88.4960,25.9,11111222 
ADCP,ioos:station:wmo:42887:1,2014-10-04T17:00:00Z,28.1910,-88.4960,25.8,11111222 
ADCP,ioos:station:wmo:42887:1,2014-10-04T17:20:00Z,28.1910,-88.4960,25.7,11111222 
ADCP,ioos:station:wmo:42887:1,2014-10-04T17:40:00Z,28.1910,-88.4960,25.3,11111222 
ADCP,ioos:station:wmo:42887:1,2014-10-04T18:00:00Z,28.1910,-88.4960,25.4,11111222 
ADCP,ioos:station:wmo:42887:1,2014-10-04T18:20:00Z,28.1910,-88.4960,25.5,11111222 
ADCP,ioos:station:wmo:42887:1,2014-10-04T18:40:00Z,28.1910,-88.4960,25.5,11111222 
ADCP,ioos:station:wmo:42887:1,2014-10-04T19:00:00Z,28.1910,-88.4960,25.5,11111222 
ADCP,ioos:station:wmo:42887:1,2014-10-04T19:20:00Z,28.1910,-88.4960,25.6,11111222 
ADCP,ioos:station:wmo:42887:1,2014-10-04T19:40:00Z,28.1910,-88.4960,25.5,11111222 
ADCP,ioos:station:wmo:42887:1,2014-10-04T20:00:00Z,28.1910,-88.4960,25.4,11111222 
ADCP,ioos:station:wmo:42887:1,2014-10-04T20:20:00Z,28.1910,-88.4960,25.2,11111222 
ADCP,ioos:station:wmo:42887:1,2014-10-04T20:40:00Z,28.1910,-88.4960,25.0,11111222 
ADCP,ioos:station:wmo:42887:1,2014-10-04T21:00:00Z,28.1910,-88.4960,25.1,11111222 
ADCP,ioos:station:wmo:42887:1,2014-10-04T21:20:00Z,28.1910,-88.4960,24.8,11111222 
ADCP,ioos:station:wmo:42887:1,2014-10-04T21:40:00Z,28.1910,-88.4960,24.5,11111222 
ADCP,ioos:station:wmo:42887:1,2014-10-04T22:00:00Z,28.1910,-88.4960,24.6,11111222 
ADCP,ioos:station:wmo:42887:1,2014-10-04T22:20:00Z,28.1910,-88.4960,24.3,11111222 
ADCP,ioos:station:wmo:42887:1,2014-10-04T22:40:00Z,28.1910,-88.4960,24.0,11111222 
ADCP,ioos:station:wmo:42887:1,2014-10-04T23:00:00Z,28.1910,-88.4960,23.9,11111222 
ADCP,ioos:station:wmo:42887:1,2014-10-04T23:20:00Z,28.1910,-88.4960,23.9,11111222 
ADCP,ioos:station:wmo:42887:1,2014-10-04T23:40:00Z,28.1910,-88.4960,23.7,11111222 
ADCP,ioos:station:wmo:42887:1,2014-10-05T00:00:00Z,28.1910,-88.4960,23.5,11111222 
ADCP,ioos:station:wmo:42887:1,2014-10-05T00:20:00Z,28.1910,-88.4960,23.5,11111222 
ADCP,ioos:station:wmo:42887:1,2014-10-05T00:40:00Z,28.1910,-88.4960,23.4,11111222 
ADCP,ioos:station:wmo:42887:1,2014-10-05T01:00:00Z,28.1910,-88.4960,23.4,11111222 
ADCP,ioos:station:wmo:42887:1,2014-10-05T01:20:00Z,28.1910,-88.4960,23.4,11111222 
ADCP,ioos:station:wmo:42887:1,2014-10-05T01:40:00Z,28.1910,-88.4960,23.5,11111222 
ADCP,ioos:station:wmo:42887:1,2014-10-05T02:00:00Z,28.1910,-88.4960,23.3,11111222 
ADCP,ioos:station:wmo:42887:1,2014-10-05T02:20:00Z,28.1910,-88.4960,23.4,11111222 
ADCP,ioos:station:wmo:42887:1,2014-10-05T02:40:00Z,28.1910,-88.4960,23.5,11111222 
ADCP,ioos:station:wmo:42887:1,2014-10-05T03:00:00Z,28.1910,-88.4960,23.5,11111222 
ADCP,ioos:station:wmo:42887:1,2014-10-05T03:20:00Z,28.1910,-88.4960,23.7,11111222 
ADCP,ioos:station:wmo:42887:1,2014-10-05T03:40:00Z,28.1910,-88.4960,23.8,11111222 
ADCP,ioos:station:wmo:42887:1,2014-10-05T04:00:00Z,28.1910,-88.4960,23.9,11111222 
ADCP,ioos:station:wmo:42887:1,2014-10-05T04:20:00Z,28.1910,-88.4960,24.0,11111222 
ADCP,ioos:station:wmo:42887:1,2014-10-05T04:40:00Z,28.1910,-88.4960,24.1,11111222 
ADCP,ioos:station:wmo:42887:1,2014-10-05T05:00:00Z,28.1910,-88.4960,24.1,11111222 
ADCP,ioos:station:wmo:42887:1,2014-10-05T05:20:00Z,28.1910,-88.4960,24.1,11111222 
ADCP,ioos:station:wmo:42887:1,2014-10-05T05:40:00Z,28.1910,-88.4960,24.2,11111222 
ADCP,ioos:station:wmo:42887:1,2014-10-05T06:00:00Z,28.1910,-88.4960,24.1,11111222 
ADCP,ioos:station:wmo:42887:1,2014-10-05T06:20:00Z,28.1910,-88.4960,24.3,11111222 
ADCP,ioos:station:wmo:42887:1,2014-10-05T06:40:00Z,28.1910,-88.4960,24.3,11111222 
ADCP,ioos:station:wmo:42887:1,2014-10-05T07:00:00Z,28.1910,-88.4960,24.3,11111222 
ADCP,ioos:station:wmo:42887:1,2014-10-05T07:20:00Z,28.1910,-88.4960,24.4,11111222 
ADCP,ioos:station:wmo:42887:1,2014-10-05T07:40:00Z,28.1910,-88.4960,24.2,11111222 
ADCP,ioos:station:wmo:42887:1,2014-10-05T08:00:00Z,28.1910,-88.4960,24.2,11111222 
ADCP,ioos:station:wmo:42887:1,2014-10-05T08:20:00Z,28.1910,-88.4960,24.2,11111222 
ADCP,ioos:station:wmo:42887:1,2014-10-05T08:40:00Z,28.1910,-88.4960,24.2,11111222 
ADCP,ioos:station:wmo:42887:1,2014-10-05T09:00:00Z,28.1910,-88.4960,24.1,11111222 
ADCP,ioos:station:wmo:42887:1,2014-10-05T09:20:00Z,28.1910,-88.4960,24.2,11111222 
ADCP,ioos:station:wmo:42887:1,2014-10-05T09:40:00Z,28.1910,-88.4960,24.3,11111222 
ADCP,ioos:station:wmo:42887:1,2014-10-05T10:00:00Z,28.1910,-88.4960,24.2,11111222 
ADCP,ioos:station:wmo:42887:1,2014-10-05T10:20:00Z,28.1910,-88.4960,24.2,11111222 
ADCP,ioos:station:wmo:42887:1,2014-10-05T10:40:00Z,28.1910,-88.4960,24.2,11111222 
ADCP,ioos:station:wmo:42887:1,2014-10-05T11:00:00Z,28.1910,-88.4960,24.2,11111222 
ADCP,ioos:station:wmo:42887:1,2014-10-05T11:20:00Z,28.1910,-88.4960,24.2,11111222 
ADCP,ioos:station:wmo:42887:1,2014-10-05T11:40:00Z,28.1910,-88.4960,24.2,11111222 
ADCP,ioos:station:wmo:42887:1,2014-10-05T12:00:00Z,28.1910,-88.4960,24.3,11111222 
ADCP,ioos:station:wmo:42887:1,2014-10-05T12:20:00Z,28.1910,-88.4960,24.7,11111222 
ADCP,ioos:station:wmo:42887:1,2014-10-05T12:40:00Z,28.1910,-88.4960,25.1,11111222 
ADCP,ioos:station:wmo:42887:1,2014-10-05T13:00:00Z,28.1910,-88.4960,25.3,11111222 
ADCP,ioos:station:wmo:42887:1,2014-10-05T13:20:00Z,28.1910,-88.4960,25.3,11111222 
ADCP,ioos:station:wmo:42887:1,2014-10-05T13:40:00Z,28.1910,-88.4960,25.5,11111222 
ADCP,ioos:station:wmo:42887:1,2014-10-05T14:00:00Z,28.1910,-88.4960,25.5,11111222 
ADCP,ioos:station:wmo:42887:1,2014-10-05T14:20:00Z,28.1910,-88.4960,25.5,11111222 
ADCP,ioos:station:wmo:42887:1,2014-10-05T14:40:00Z,28.1910,-88.4960,25.3,11111222 
ADCP,ioos:station:wmo:42887:1,2014-10-05T15:00:00Z,28.1910,-88.4960,25.5,11111222 
ADCP,ioos:station:wmo:42887:1,2014-10-05T15:20:00Z,28.1910,-88.4960,25.6,11111222 
ADCP,ioos:station:wmo:42887:1,2014-10-05T15:40:00Z,28.1910,-88.4960,25.5,11111222 
ADCP,ioos:station:wmo:42887:1,2014-10-05T16:00:00Z,28.1910,-88.4960,25.5,11111222 
ADCP,ioos:station:wmo:42887:1,2014-10-05T16:20:00Z,28.1910,-88.4960,25.4,11111222 
ADCP,ioos:station:wmo:42887:1,2014-10-05T16:40:00Z,28.1910,-88.4960,25.0,11111222 
ADCP,ioos:station:wmo:42887:1,2014-10-05T17:00:00Z,28.1910,-88.4960,25.4,11111222 
ADCP,ioos:station:wmo:42887:1,2014-10-05T17:20:00Z,28.1910,-88.4960,24.7,11111222 
ADCP,ioos:station:wmo:42887:1,2014-10-05T17:40:00Z,28.1910,-88.4960,24.7,11111222 
ADCP,ioos:station:wmo:42887:1,2014-10-05T18:00:00Z,28.1910,-88.4960,24.9,11111222 
ADCP,ioos:station:wmo:42887:1,2014-10-05T18:20:00Z,28.1910,-88.4960,24.5,11111222 
ADCP,ioos:station:wmo:42887:1,2014-10-05T18:40:00Z,28.1910,-88.4960,24.4,11111222 
ADCP,ioos:station:wmo:42887:1,2014-10-05T19:00:00Z,28.1910,-88.4960,24.4,11111222 
ADCP,ioos:station:wmo:42887:1,2014-10-05T19:20:00Z,28.1910,-88.4960,24.5,11111222 
ADCP,ioos:station:wmo:42887:1,2014-10-05T19:40:00Z,28.1910,-88.4960,24.4,11111222 
ADCP,ioos:station:wmo:42887:1,2014-10-05T20:00:00Z,28.1910,-88.4960,24.7,11111222 
ADCP,ioos:station:wmo:42887:1,2014-10-05T20:20:00Z,28.1910,-88.4960,24.4,11111222 
ADCP,ioos:station:wmo:42887:1,2014-10-05T20:40:00Z,28.1910,-88.4960,24.7,11111222 
ADCP,ioos:station:wmo:42887:1,2014-10-05T21:00:00Z,28.1910,-88.4960,24.8,11111222 
ADCP,ioos:station:wmo:42887:1,2014-10-05T21:20:00Z,28.1910,-88.4960,24.9,11111222 
ADCP,ioos:station:wmo:42887:1,2014-10-05T21:40:00Z,28.1910,-88.4960,25.1,11111222 
ADCP,ioos:station:wmo:42887:1,2014-10-05T22:00:00Z,28.1910,-88.4960,24.9,11111222 
ADCP,ioos:station:wmo:42887:1,2014-10-05T22:20:00Z,28.1910,-88.4960,25.0,11111222 
ADCP,ioos:station:wmo:42887:1,2014-10-05T22:40:00Z,28.1910,-88.4960,24.8,11111222 
ADCP,ioos:station:wmo:42887:1,2014-10-05T23:00:00Z,28.1910,-88.4960,24.6,11111222 
ADCP,ioos:station:wmo:42887:1,2014-10-05T23:20:00Z,28.1910,-88.4960,24.6,11111222 
ADCP,ioos:station:wmo:42887:1,2014-10-05T23:40:00Z,28.1910,-88.4960,24.9,11111222 
ADCP,ioos:station:wmo:42887:1,2014-10-06T00:00:00Z,28.1910,-88.4960,24.9,11111222 
ADCP,ioos:station:wmo:42887:1,2014-10-06T00:20:00Z,28.1910,-88.4960,25.0,11111222 
ADCP,ioos:station:wmo:42887:1,2014-10-06T00:40:00Z,28.1910,-88.4960,25.3,11111222 